Change the Weather History Date:

Sunday, February 23, 2014

  Actual Average Record
Temperature  
Mean Temperature 8 °F 23 °F  
Max Temperature 18 °F 32 °F 63 °F (2002)
Min Temperature -3 °F 15 °F -10 °F (1989)
Degree Days  
Heating Degree Days 57 42  
Month to date heating degree days 1274 1044  
Since 1 July heating degree days 6177 5715  
Cooling Degree Days 0 0  
Month to date cooling degree days 0 0  
Year to date cooling degree days 0 0  
Moisture  
Dew Point 3 °F    
Average Humidity 81    
Maximum Humidity 95    
Minimum Humidity 67    
Precipitation  
Precipitation 0.00 in 0.02 in 0.80 in (1971)
Month to date precipitation 0.28 0.29  
Sea Level Pressure  
Sea Level Pressure 30.35 in    
Wind  
Wind Speed 12 mph (WNW)    
Max Wind Speed 18 mph    
Max Gust Speed 23 mph    
Visibility 10 miles    
Events      
T = Trace of Precipitation, MM = Missing Value Source: NWS Daily Summary

Daily Weather History Graph

Daily Weather History Graph

Search for Another Location

Airport or City:

Trip Planner

Search our weather history database for the weather conditions in past years. The results will help you decide how hot, cold, wet, or windy it might be!

Date:

Astronomy

Feb. 23, 2014 Rise Set
Actual Time 7:04 AM CST 6:00 PM CST
Civil Twilight 6:36 AM CST 6:29 PM CST
Nautical Twilight 6:02 AM CST 7:02 PM CST
Astronomical Twilight 5:29 AM CST 7:35 PM CST
Moon 2:09 AM CST (2/23) 11:58 AM CST (2/23)
Length of Visible Light 11h 53m
Length of Day
10h 55m
Last Quarter, 38% of the Moon is Illuminated
Feb 23
Last Quarter
Mar 1
New
Mar 8
First Quarter
Mar 16
Full
Mar 23
Last Quarter

Hourly Weather History & Observations

Time (CST) Temp. Windchill Dew Point Humidity Pressure Visibility Wind Dir Wind Speed Gust Speed Precip Events Conditions
12:52 AM 7.0 °F -9.1 °F 3.0 °F 84% 30.25 in 10.0 mi NW 12.7 mph - N/A   Clear
1:52 AM 5.0 °F -10.0 °F 1.0 °F 84% 30.27 in 10.0 mi NW 10.4 mph - N/A   Clear
2:52 AM 3.0 °F -12.5 °F -0.9 °F 84% 30.27 in 10.0 mi NW 10.4 mph - N/A   Clear
3:52 AM 3.0 °F -10.5 °F -0.9 °F 84% 30.28 in 10.0 mi WNW 8.1 mph - N/A   Clear
4:52 AM 1.9 °F -9.2 °F -0.9 °F 88% 30.29 in 10.0 mi WNW 5.8 mph - N/A   Clear
5:52 AM -0.0 °F -16.3 °F -4.0 °F 83% 30.31 in 10.0 mi WSW 10.4 mph - N/A   Clear
6:52 AM -2.0 °F -15.4 °F -5.1 °F 87% 30.34 in 10.0 mi WSW 6.9 mph - N/A   Clear
7:52 AM 1.0 °F -14.0 °F -2.9 °F 83% 30.36 in 10.0 mi West 9.2 mph - N/A   Clear
8:52 AM 6.1 °F -6.8 °F -0.0 °F 76% 30.35 in 10.0 mi West 8.1 mph - N/A   Clear
9:52 AM 10.0 °F -7.1 °F 3.0 °F 73% 30.37 in 10.0 mi WNW 16.1 mph - N/A   Clear
10:52 AM 12.0 °F -4.5 °F 3.9 °F 70% 30.37 in 10.0 mi WNW 16.1 mph - N/A   Clear
11:52 AM 14.0 °F -2.5 °F 6.1 °F 71% 30.37 in 10.0 mi NW 17.3 mph - N/A   Clear
12:52 PM 15.1 °F -0.6 °F 7.0 °F 70% 30.37 in 10.0 mi WNW 16.1 mph - N/A   Clear
1:52 PM 17.1 °F 2.5 °F 9.0 °F 71% 30.36 in 10.0 mi West 15.0 mph - N/A   Clear
2:52 PM 18.0 °F 2.6 °F 10.0 °F 71% 30.36 in 10.0 mi WNW 17.3 mph - N/A   Clear
3:52 PM 18.0 °F 3.1 °F 10.0 °F 71% 30.36 in 10.0 mi WNW 16.1 mph - N/A   Clear
4:52 PM 17.1 °F 2.5 °F 10.0 °F 74% 30.37 in 10.0 mi WNW 15.0 mph - N/A   Clear
5:52 PM 14.0 °F 1.2 °F 7.0 °F 74% 30.37 in 10.0 mi West 10.4 mph - N/A   Clear
6:52 PM 10.9 °F -2.6 °F 6.1 °F 81% 30.39 in 10.0 mi West 10.4 mph - N/A   Clear
7:52 PM 10.9 °F -4.1 °F 6.1 °F 81% 30.38 in 10.0 mi West 12.7 mph - N/A   Clear
8:52 PM 10.0 °F -4.5 °F 6.1 °F 84% 30.38 in 10.0 mi WNW 11.5 mph - N/A   Clear
9:52 PM 8.1 °F -7.7 °F 3.9 °F 83% 30.39 in 10.0 mi WNW 12.7 mph - N/A   Clear
10:52 PM 6.1 °F -9.5 °F 1.9 °F 83% 30.40 in 10.0 mi WNW 11.5 mph - N/A   Clear
11:52 PM 3.9 °F -10.4 °F 1.0 °F 88% 30.40 in 10.0 mi WNW 9.2 mph - N/A   Clear